ASTRA 2G

Last updated on Thu Jul 03 2025 00:02:46 GMT+0000 (Coordinated Universal Time)

1 40364U 14089A 25183.57222552 .00000157 00000+0 00000+0 0 9999 2 40364 0.0458 347.3635 0004511 87.2637 80.4271 1.00269868 38464
UTC large
Height (km)
Speed (km/s)
/
Latitude / Longitude
Inclination (degrees)
Orbital Period (minutes)
Azimuth
Elevation
Range (km)
Doppler Factor

Next 0 passes for location: London (51.5072 / 0.1276)

Sorry there are no passes over London.